Find Flock 4q-35

NORAD ID: 58309 Int'l Des: 2023-174 Owner: PLAN Country: US Constellation: planet operational
LEOCIRCULARRETROGRADESSO

現在のビュー

3D地球を読み込み中...

Flock 4q-35について

説明を読み込み中...

次回通過

Passes for default location (London). Set your location on the main map for personalized predictions.

高度履歴

Loading altitude history...

軌道要素

1 58309U 23174BF 26150.80098516 .00043369 00000-0 63285-3 0 9995
2 58309 97.3888 242.2893 0005655 195.6430 164.4650 15.55541533143101
Epoch: May 30, 2026 • Age: 9 hours

現在のステータス

高度 424.6 km
速度 7.65 km/s
衛星直下点 -59.90°S, 56.55°W
打ち上げ日 Nov 11, 2023
運用期間 2.5 years
タイプ earth observation

技術仕様

分類 Payload
質量 5.70 kg
乾燥質量 5.70 kg
総質量 5.70 kg
長さ 0.30 m
直径 0.10 m
スパン 0.30 m
形状 Box+2 pan
製造者 PLAN
バスタイプ Cubesat 3U
フェーズステータス In Orbit
所有者/国 PLAN/US

Most Searched